COSMOS 2439

导读

**COSMOS 2439卫星摘要** COSMOS 2439由独联体(CIS)于2008年5月23日发射,隶属于苏联/俄罗斯“宇宙”系列卫星家族。该系列多以军事应用为核心,涵盖侦察、通信、技术试验等任务。作为冷战后持续推进的航天项目,它见证了俄罗斯航天工业的传承与发展,至今仍在轨道上履行特定使命,是独联体航天领域的重要组成部分。

基本信息
目录编号:
32956
目录名称:
COSMOS 2439
国际标识:
2008-025D
轨道中心:
EARTH
卫星名称:
COSMOS 2439
卫星全名:
--
卫星状态:
在轨 (已飞行6688 天)
发射日期:
2008-05-23 UTC
国别 :
俄罗斯(独联体) (CIS)
星等 :
--
该卫星已列入 空间交会检测服务 Space Conjunction Data Service (SCDS) ,当前飞行风险评估等级: 无高风险
轨道信息
数据来源 国际轨道数据
星历时间: 2026-09-14T06:43:14+0800
6小时前
查看轨道信息
半长轴: 7871.745km
偏心率: 0.002199
轨道倾角: 82.506°
近地点辐角 120.064°
升交点赤经 302.630°
平近点角 240.263°
近地点: 1476.298km
远地点: 1510.918km
周期: 115.842分钟
每日圈数: 12.430721
详细信息
使用方式:
暂无
2D轨道图
3D轨道图
轨道高度分析图
轨道倾角分析图
轨道综合分析图
查看轨道综合分析图
与全量物体交会距离演化趋势 订阅飞行安全评估服务
与全量物体交会风险概率演化趋势 订阅飞行安全评估服务